Riverton, WY

5:47 PM MST on January 18, 2018 (GMT -0700)
Riverton Regional

Weather History for KRIW - March, 2014

Change the Weather History Date:

Monday, March 24, 2014

  Actual Average Record
Temperature  
Mean Temperature 27 °F 38 °F  
Max Temperature 38 °F 50 °F 69 °F (2004)
Min Temperature 15 °F 26 °F -2 °F (1996)
Degree Days  
Heating Degree Days 38 27  
Month to date heating degree days 734 738  
Since 1 July heating degree days 6615 6592  
Cooling Degree Days 0 0  
Month to date cooling degree days 0 0  
Year to date cooling degree days 0 0  
Moisture  
Dew Point 22 °F    
Average Humidity 76    
Maximum Humidity 100    
Minimum Humidity 52    
Precipitation  
Precipitation 0.05 in 0.01 in 0.10 in (2002)
Month to date precipitation 0.46 0.35  
Year to date precipitation 1.36 0.86  
Snow  
Snow 0.30 in - - ()
Month to date snowfall 3.1  
Since 1 July snowfall 52.3  
Snow Depth 0.00 in    
Sea Level Pressure  
Sea Level Pressure 30.23 in    
Wind  
Wind Speed 6 mph (NE)    
Max Wind Speed 17 mph    
Max Gust Speed 21 mph    
Visibility 7 miles    
Events Fog , Snow    
T = Trace of Precipitation, MM = Missing Value Source: NWS Daily Summary

Daily Weather History Graph

Daily Weather History Graph

Search for Another Location

Airport or City:

Trip Planner

Search our weather history database for the weather conditions in past years. The results will help you decide how hot, cold, wet, or windy it might be!

Date:

Astronomy

Mar. 24, 2014 Rise Set
Actual Time 7:09 AM MDT 7:30 PM MDT
Civil Twilight 6:41 AM MDT 7:59 PM MDT
Nautical Twilight 6:08 AM MDT 8:32 PM MDT
Astronomical Twilight 5:33 AM MDT 9:07 PM MDT
Moon 2:51 AM MDT (3/24) 12:51 PM MDT (3/24)
Length of Visible Light 13h 17m
Length of Day
12h 21m
Last Quarter, 42% of the Moon is Illuminated
Mar 24
Last Quarter
Mar 30
New
Apr 7
First Quarter
Apr 15
Full
Apr 22
Last Quarter

Hourly Weather History & Observations

Time (MDT) Temp. Windchill Dew Point Humidity Pressure Visibility Wind Dir Wind Speed Gust Speed Precip Events Conditions
12:42 AM 26.1 °F 14.0 °F 23.0 °F 88% 30.13 in 10.0 mi ENE 15.0 mph - N/A   Overcast
12:51 AM 26.6 °F 15.2 °F 24.8 °F 93% 30.12 in 10.0 mi ENE 13.8 mph - N/A   Overcast
12:53 AM 26.1 °F 15.0 °F 24.1 °F 92% 30.16 in 10.0 mi ENE 12.7 mph - N/A   Overcast
1:01 AM 26.1 °F 15.0 °F 24.1 °F 92% 30.12 in 10.0 mi ENE 12.7 mph - N/A   Overcast
1:39 AM 26.1 °F 14.5 °F 24.1 °F 92% 30.14 in 2.5 mi NE 13.8 mph - 0.00 in Snow Light Snow
1:45 AM 26.1 °F 14.0 °F 24.1 °F 92% 30.14 in 0.8 mi NE 15.0 mph - 0.00 in Snow Light Snow
1:53 AM 26.1 °F 16.2 °F 24.1 °F 92% 30.17 in 0.5 mi ENE 10.4 mph - 0.02 in Fog , Snow Snow
2:00 AM 26.1 °F 16.2 °F 24.1 °F 92% 30.14 in 1.0 mi ENE 10.4 mph - 0.00 in Snow Light Snow
2:13 AM 25.0 °F 15.5 °F 24.1 °F 96% 30.15 in 0.8 mi ENE 9.2 mph - 0.01 in Snow Light Snow
2:22 AM 25.0 °F 14.8 °F 24.1 °F 96% 30.15 in 0.8 mi East 10.4 mph - 0.02 in Snow Light Snow
2:30 AM 25.0 °F 16.3 °F 24.1 °F 96% 30.15 in 1.5 mi ENE 8.1 mph - 0.02 in Snow Light Snow
2:43 AM 25.0 °F 16.3 °F 24.1 °F 96% 30.16 in 2.0 mi NE 8.1 mph - 0.02 in Snow Light Snow
2:53 AM 25.0 °F 17.1 °F 24.1 °F 96% 30.19 in 3.0 mi NE 6.9 mph - 0.02 in Snow Light Snow
3:23 AM 24.1 °F 17.0 °F 23.0 °F 96% 30.15 in 7.0 mi NE 5.8 mph - 0.01 in Snow Light Snow
3:53 AM 21.9 °F 13.4 °F 21.0 °F 96% 30.17 in 6.0 mi NE 6.9 mph - 0.01 in   Overcast
4:06 AM 21.0 °F 13.4 °F 19.9 °F 96% 30.16 in 1.5 mi NE 5.8 mph - N/A   Overcast
4:14 AM 19.9 °F 11.1 °F 19.0 °F 96% 30.16 in 0.2 mi NE 6.9 mph - N/A Fog Light Freezing Fog
4:21 AM 19.9 °F 11.1 °F 19.0 °F 96% 30.16 in 1.0 mi NNE 6.9 mph - N/A   Mist
4:25 AM 19.9 °F 11.1 °F 18.0 °F 92% 30.17 in 3.0 mi NNE 6.9 mph - N/A   Overcast
4:36 AM 19.0 °F 10.0 °F 18.0 °F 96% 30.17 in 1.8 mi North 6.9 mph - N/A   Mostly Cloudy
4:48 AM 19.4 °F 10.4 °F 17.6 °F 93% 30.18 in 3.0 mi North 6.9 mph - N/A   Mostly Cloudy
4:53 AM 21.0 °F 13.4 °F 19.0 °F 92% 30.22 in 4.0 mi North 5.8 mph - N/A   Mostly Cloudy
5:53 AM 21.9 °F 15.7 °F 21.0 °F 96% 30.25 in 10.0 mi NW 4.6 mph - N/A   Overcast
6:53 AM 19.0 °F 12.3 °F 17.1 °F 92% 30.30 in 10.0 mi WNW 4.6 mph - N/A   Mostly Cloudy
7:38 AM 19.0 °F 12.3 °F 17.1 °F 92% 30.23 in 10.0 mi WNW 4.6 mph - N/A   Mostly Cloudy
7:46 AM 17.1 °F 10.0 °F 16.0 °F 96% 30.23 in 10.0 mi WNW 4.6 mph - N/A   Scattered Clouds
7:53 AM 18.0 °F - 15.1 °F 88% 30.34 in 10.0 mi Calm Calm - N/A   Scattered Clouds
8:08 AM 19.0 °F 12.3 °F 17.1 °F 92% 30.23 in 0.8 mi North 4.6 mph - N/A   Mist
8:11 AM 19.9 °F - 18.0 °F 92% 30.23 in 0.2 mi Calm Calm - N/A Fog Light Freezing Fog
8:38 AM 24.1 °F - 23.0 °F 96% 30.23 in 1.0 mi Calm Calm - N/A   Overcast
8:42 AM 23.0 °F 18.4 °F 21.9 °F 96% 30.23 in 1.8 mi NW 3.5 mph - N/A   Overcast
8:53 AM 25.0 °F - 23.0 °F 92% 30.33 in 5.0 mi Calm Calm - N/A   Overcast
9:08 AM 25.0 °F - 24.1 °F 96% 30.23 in 10.0 mi Calm Calm - N/A   Overcast
9:53 AM 25.0 °F - 24.1 °F 96% 30.35 in 10.0 mi Calm Calm - N/A   Overcast
10:53 AM 25.0 °F - 24.1 °F 96% 30.35 in 10.0 mi Calm Calm - N/A   Overcast
11:48 AM 26.6 °F 22.6 °F 23.0 °F 86% 30.24 in 10.0 mi East 3.5 mph - N/A   Overcast
11:53 AM 27.0 °F - 23.0 °F 85% 30.35 in 10.0 mi Calm Calm - N/A   Overcast
12:07 PM 28.0 °F 22.8 °F 24.1 °F 85% 30.23 in 10.0 mi ENE 4.6 mph - N/A   Overcast
12:26 PM 30.9 °F 27.5 °F 24.1 °F 76% 30.22 in 10.0 mi North 3.5 mph - N/A   Scattered Clouds
12:37 PM 30.9 °F 25.2 °F 25.0 °F 79% 30.22 in 10.0 mi Variable 5.8 mph - N/A   Scattered Clouds
12:50 PM 32.0 °F 24.8 °F 26.6 °F 80% 30.22 in 10.0 mi ENE 8.1 mph - N/A   Mostly Cloudy
12:53 PM 32.0 °F 24.8 °F 27.0 °F 82% 30.31 in 10.0 mi ENE 8.1 mph - N/A   Mostly Cloudy
1:22 PM 30.9 °F 25.2 °F 24.1 °F 76% 30.21 in 10.0 mi Variable 5.8 mph - N/A   Scattered Clouds
1:53 PM 33.1 °F 26.9 °F 24.1 °F 70% 30.28 in 10.0 mi ENE 6.9 mph - N/A   Clear
2:53 PM 36.0 °F 28.5 °F 24.1 °F 62% 30.25 in 10.0 mi ENE 10.4 mph - N/A   Clear
3:53 PM 37.0 °F 31.6 °F 21.9 °F 54% 30.25 in 10.0 mi ENE 6.9 mph - N/A   Clear
4:53 PM 37.9 °F 30.5 °F 24.1 °F 57% 30.24 in 10.0 mi NE 11.5 mph - N/A   Clear
5:53 PM 37.0 °F 29.8 °F 23.0 °F 57% 30.24 in 10.0 mi ENE 10.4 mph - N/A   Clear
6:53 PM 35.1 °F 27.9 °F 21.0 °F 57% 30.27 in 10.0 mi ENE 9.2 mph - N/A   Clear
7:53 PM 30.9 °F 22.2 °F 21.0 °F 67% 30.30 in 10.0 mi NE 10.4 mph - N/A   Clear
8:53 PM 28.9 °F 21.1 °F 21.9 °F 75% 30.32 in 10.0 mi NE 8.1 mph - N/A   Clear
9:53 PM 27.0 °F 20.5 °F 21.0 °F 78% 30.35 in 10.0 mi NE 5.8 mph - N/A   Clear
10:53 PM 28.0 °F 24.2 °F 19.9 °F 72% 30.34 in 10.0 mi ENE 3.5 mph - N/A   Clear
11:53 PM 25.0 °F 19.3 °F 19.0 °F 78% 30.34 in 10.0 mi ENE 4.6 mph - N/A   Clear